Location: New Plymouth
(39.0670°S, 174.0830°E)
Time: 14:13:38
(UTC+13:00)

Cosmos 2228 Rocket - Pass Details

Date: 24 January 2019
Orbit: 617 x 653 km, 82.5° (Epoch: 19 February)

Event Time Altitude Azimuth Distance (km) Brightness Sun altitude
Exits shadow 21:12:52 - 33° (NNE) 2,555 5.7 -5.4°
Reaches altitude 10° 21:14:36 10° 45° (NE) 1,990 5.0 -5.7°
Maximum altitude 21:17:51 21° 93° (E) 1,431 4.5 -6.2°
Drops below altitude 10° 21:21:09 10° 140° (SE) 2,015 5.6 -6.8°
Sets 21:23:51 0° 156° (SSE) 2,935 6.6 -7.2°
